[[{"header":{"parameterUnit":"m.s-1","parameterCategory":1,"la1":30.2991,"la2":30.254,"lo1":-89.0895,"lo2":-89.0444,"dy":0.0017,"dx":0.0017,"nx":28,"ny":28,"refTime":"2023-06-27T21:00:00:Z","depth":0,"parameterNumber":2,"parameterNumberName":"U-component_of_WINDS"},"data":[0,0,0,0,0,0,0,0,0,0,0,0,0,0,0,0,0,0,0,0,0,0,0,0,0,0,0,0,0,0,0,0,0,0,0,0,0,0,0,0,0,0,0,0,0,0,0,0,0,0,0,0,0,0,0,0,0,0,3.5028,3.5028,0,3.5085,3.5086,3.5086,3.5037,3.5034,3.5032,3.503,3.5098,3.5101,3.5105,0,0,0,0,0,0,0,0,0,0,0,0,0,3.4884,3.4887,3.5028,3.5028,3.5029,3.5085,3.5086,3.5086,3.5037,3.5034,3.5032,3.503,3.5096,3.5101,3.5105,0,0,0,0,0,0,0,0,0,0,0,0,0,3.4945,3.4888,3.5027,3.5011,3.501,3.5085,3.5086,3.5087,3.5037,3.5034,3.5031,3.5028,3.5095,3.51,3.5106,3.5203,0,0,3.5123,3.5125,0,0,0,0,0,0,0,0,3.4941,3.495,3.5013,3.5012,3.5011,3.505,3.506,3.5126,3.5038,3.5027,3.503,3.5027,3.5085,3.5091,3.5109,3.5206,3.5209,3.5123,3.5127,3.5129,3.5131,0,0,0,0,0,0,0,3.4937,3.4947,3.505,3.5014,3.5013,3.5003,3.5009,3.5072,3.5073,3.5028,3.5024,3.5032,3.5084,3.5104,3.511,3.521,3.5123,3.5128,3.5132,3.5134,3.5392,3.5396,0,0,0,0,0,0,3.4934,3.4944,3.5049,3.5052,3.4968,3.5009,3.5014,3.5041,3.5072,3.5074,3.5034,3.5029,3.5096,3.5104,3.5112,3.523,3.5129,3.5134,3.5138,3.5389,3.5393,3.5397,0,0,0,0,0,0,3.4931,3.4943,3.5046,3.4997,3.501,3.5014,3.5045,3.5044,3.5063,3.5077,3.5078,3.5053,3.5094,3.5105,3.5181,3.5232,3.5137,3.5142,3.5385,3.539,3.5395,3.5465,0,0,0,0,0,0,3.4927,3.4942,3.4977,3.4998,3.5012,3.5111,3.5048,3.5047,3.5072,3.5066,3.5095,3.5097,3.5092,3.5173,3.5186,3.5238,3.5146,3.538,3.5387,3.5393,3.5459,3.5472,3.5484,0,0,0,0,0,3.4922,3.4996,3.4979,3.4992,3.5055,3.5114,3.5123,3.5113,3.5076,3.5113,3.5122,3.5096,3.5223,3.5181,3.5196,3.525,3.5377,3.5385,3.5393,3.5453,3.547,3.5484,0,0,0,0,0,0,3.4983,3.4998,3.498,3.5062,3.5087,3.5105,3.5151,3.513,3.5168,3.5161,3.515,3.5157,3.5238,3.5251,3.5203,3.5347,3.5295,3.5306,3.5335,3.5351,3.5364,3.5361,3.5151,0,0,0,0,0,3.5005,3.5049,3.5061,3.5133,3.5146,3.5147,3.5172,3.5162,3.5188,3.5199,3.5214,3.5243,3.529,3.5321,3.5364,3.5459,3.5467,3.5504,3.5517,3.5527,3.5539,3.5593,3.5611,3.5423,3.5423,3.5423,0,0,3.5054,3.5067,3.5096,3.5146,3.5164,3.5213,3.5156,3.5209,3.5247,3.5208,3.5281,3.5293,3.5325,3.5412,3.5451,3.5425,3.5592,3.5538,3.5546,3.5551,3.5603,3.5621,3.5637,3.5428,3.5427,3.5426,0,0,3.5167,3.518,3.5242,3.5261,3.5289,3.5289,3.5304,3.5326,3.5332,3.5404,3.5377,3.5422,3.5502,3.5527,3.555,3.5674,3.5653,3.5689,3.5757,3.581,3.5825,3.5838,3.5886,3.5903,3.5699,3.5699,3.5699,0,3.5224,3.5294,3.5278,3.5334,3.5358,3.5323,3.5389,3.5409,3.545,3.5469,3.5439,3.554,3.5559,3.5653,3.5683,3.5701,3.5721,3.5686,3.5824,3.5837,3.5849,3.5894,3.5912,3.5703,3.5703,3.5702,3.5702,0,3.5365,3.5414,3.5461,3.55,3.553,3.559,3.5587,3.5619,3.5607,3.5611,3.5687,3.5708,3.5757,3.5778,3.5767,3.5871,3.5855,3.5824,3.5773,3.5871,3.5914,3.5931,3.5709,3.5708,3.5707,3.5706,0,0,3.5519,3.5548,3.5566,3.5585,3.5613,3.5652,3.5712,3.5757,3.5787,3.5817,3.587,3.5938,3.5911,3.5937,3.5929,3.5975,3.6077,3.594,3.5941,3.5967,3.6197,3.6222,3.6242,3.6062,3.6065,3.6067,3.6195,0,3.5636,3.5738,3.5726,3.5825,3.5873,3.5841,3.5894,3.5919,3.5924,3.5968,3.5975,3.6025,3.5983,3.5999,3.6044,3.6055,3.6123,3.6045,3.6115,3.6118,3.6111,3.6263,3.6289,3.6409,3.6211,3.6214,3.6216,0,3.5786,3.5819,3.5923,3.5945,3.5965,3.6012,3.6054,3.6094,3.6123,3.6125,3.6154,3.6138,3.6203,3.6147,3.6238,3.6185,3.6213,3.6223,3.6228,3.6237,3.6175,3.628,3.6446,3.6466,3.6242,3.624,3.6238,0,3.5892,3.5963,3.6035,3.6051,3.6079,3.6113,3.6127,3.6152,3.6181,3.6218,3.6237,3.6282,3.6308,3.6345,3.6343,3.6302,3.6437,3.638,3.6443,3.6443,3.6475,3.6474,3.6652,3.6488,3.6488,3.6487,3.6487,0,3.6026,3.6091,3.6083,3.6128,3.6201,3.6188,3.6262,3.6272,3.6295,3.6344,3.6319,3.6365,3.6358,3.6406,3.6405,3.6483,3.6494,3.65,3.6499,3.6504,3.6504,3.6524,3.6517,3.6492,3.6491,3.649,3.6489,0,3.6158,3.6155,3.6232,3.6251,3.6257,3.6311,3.6329,3.6373,3.6376,3.6438,3.6452,3.6459,3.6514,3.6515,3.6578,3.6578,3.6674,3.6662,3.6664,3.6663,3.6726,3.6722,3.6927,3.6955,3.6769,3.6771,3.6773,0,3.6245,3.6294,3.6319,3.6348,3.6364,3.6411,3.644,3.643,3.6461,3.6499,3.6539,3.6591,3.6632,3.6723,3.6735,3.6785,3.6777,3.6845,3.6784,3.6788,3.6782,3.678,3.6787,3.6858,3.686,3.6862,3.6863,0,3.6401,3.6397,3.6438,3.6479,3.6514,3.6547,3.6577,3.6603,3.6597,3.6634,3.6689,3.6721,3.6785,3.6839,3.6886,3.6904,3.6885,3.6882,3.69,3.6906,3.6906,3.691,3.67,3.6878,3.6876,3.6875,3.6875,3.6874,3.6516,3.6559,3.6583,3.6631,3.6652,3.6681,3.6724,3.6732,3.6776,3.6826,3.6818,3.688,3.6911,3.6972,3.6994,3.7045,3.7021,3.7046,3.7053,3.706,3.7069,3.6895,3.7053,3.7053,3.7052,3.7052,3.7051,0,3.6673,3.6687,3.673,3.6773,3.6811,3.6785,3.6818,3.6852,3.6907,3.6935,3.6975,3.704,3.7092,3.7109,3.716,3.7198,3.7191,3.7212,3.7211,3.7216,3.7085,3.7066,3.7217,3.7217,3.7217,3.7217,3.7217,3.7217,3.676,3.6833,3.6832,3.6917,3.6931,3.699,3.7011,3.7039,3.7061,3.7134,3.7176,3.7185,3.721,3.7263,3.7311,3.7315,3.7337,3.7363,3.7364,3.7242,3.7225,3.7209,3.7191,3.7367,3.7367,3.7491,3.7492,3.7493]},{"header":{"parameterUnit":"m.s-1","parameterCategory":1,"la1":30.2991,"la2":30.254,"lo1":-89.0895,"lo2":-89.0444,"dy":0.0017,"dx":0.0017,"nx":28,"ny":28,"refTime":"2023-06-27T21:00:00:Z","depth":0,"parameterNumber":3,"parameterNumberName":"V-component_of_WINDS"},"data":[0,0,0,0,0,0,0,0,0,0,0,0,0,0,0,0,0,0,0,0,0,0,0,0,0,0,0,0,0,0,0,0,0,0,0,0,0,0,0,0,0,0,0,0,0,0,0,0,0,0,0,0,0,0,0,0,0,0,1.8203,1.8204,0,1.8272,1.8273,1.8274,1.8294,1.8294,1.8293,1.8293,1.8362,1.8364,1.8366,0,0,0,0,0,0,0,0,0,0,0,0,0,1.8084,1.8086,1.8203,1.8204,1.8205,1.8272,1.8273,1.8274,1.8294,1.8294,1.8293,1.8293,1.8361,1.8364,1.8366,0,0,0,0,0,0,0,0,0,0,0,0,0,1.8142,1.8086,1.8203,1.8223,1.8225,1.8272,1.8273,1.8274,1.8294,1.8294,1.8293,1.8293,1.836,1.8363,1.8367,1.8398,0,0,1.8377,1.8378,0,0,0,0,0,0,0,0,1.8139,1.8147,1.8219,1.8222,1.8225,1.8274,1.8256,1.8316,1.8294,1.8268,1.8293,1.8292,1.8333,1.8338,1.8353,1.8401,1.8404,1.8377,1.8379,1.838,1.8381,0,0,0,0,0,0,0,1.8135,1.8144,1.823,1.822,1.8223,1.8227,1.8235,1.8268,1.8303,1.827,1.8272,1.828,1.8334,1.8349,1.8354,1.8405,1.8377,1.838,1.8382,1.8383,1.8478,1.8479,0,0,0,0,0,0,1.8128,1.814,1.8228,1.8233,1.818,1.823,1.8238,1.8259,1.8302,1.8309,1.828,1.8281,1.8344,1.835,1.8357,1.8394,1.838,1.8383,1.8385,1.8478,1.8478,1.8479,0,0,0,0,0,0,1.8125,1.8136,1.8225,1.8187,1.8199,1.8232,1.8255,1.826,1.8276,1.831,1.8316,1.829,1.8344,1.8352,1.8387,1.8397,1.8385,1.8388,1.8477,1.8478,1.8479,1.847,0,0,0,0,0,0,1.8122,1.8135,1.8148,1.8187,1.8201,1.8256,1.8256,1.8262,1.8281,1.8282,1.832,1.8326,1.8344,1.8382,1.839,1.8401,1.839,1.8476,1.8477,1.8478,1.8469,1.847,1.8471,0,0,0,0,0,1.8117,1.8143,1.8149,1.8159,1.8218,1.8256,1.8264,1.8285,1.8282,1.8295,1.8316,1.8325,1.8394,1.8385,1.8394,1.8407,1.8476,1.8477,1.8478,1.8469,1.847,1.8471,0,0,0,0,0,0,1.8105,1.8149,1.8155,1.8195,1.8221,1.826,1.8277,1.8286,1.8314,1.8313,1.8337,1.8345,1.8378,1.8396,1.8385,1.8437,1.8435,1.8438,1.8424,1.8426,1.8427,1.8422,1.8393,0,0,0,0,0,1.8106,1.8135,1.8171,1.8202,1.8215,1.8243,1.8261,1.8274,1.8303,1.8314,1.8338,1.8365,1.8392,1.841,1.8437,1.8471,1.8479,1.8484,1.8485,1.8485,1.8488,1.8504,1.8506,1.8483,1.8483,1.8483,0,0,1.811,1.8138,1.8154,1.82,1.8223,1.8249,1.8253,1.8282,1.8302,1.8318,1.8352,1.837,1.8401,1.8435,1.8451,1.8451,1.8495,1.8487,1.8487,1.8489,1.8506,1.8508,1.851,1.8484,1.8484,1.8484,0,0,1.8131,1.8156,1.8183,1.8205,1.8238,1.8256,1.8262,1.8299,1.8311,1.8346,1.8357,1.838,1.8428,1.8448,1.8465,1.8489,1.8497,1.8497,1.8502,1.8518,1.852,1.8521,1.8528,1.8531,1.85,1.85,1.85,0,1.8132,1.8174,1.8196,1.8223,1.8242,1.8257,1.8284,1.8304,1.8344,1.8356,1.8355,1.8413,1.8435,1.8472,1.8478,1.8491,1.8497,1.8494,1.8518,1.852,1.8522,1.8529,1.8531,1.8499,1.85,1.85,1.85,0,1.8172,1.8201,1.8218,1.8257,1.8277,1.8304,1.8328,1.8345,1.8356,1.8373,1.8406,1.8432,1.8464,1.8474,1.8485,1.8512,1.851,1.8513,1.8512,1.8523,1.853,1.8533,1.8499,1.8499,1.8499,1.8499,0,0,1.8189,1.8236,1.8242,1.8259,1.8295,1.8317,1.8343,1.8374,1.8388,1.8414,1.8436,1.8473,1.8475,1.8494,1.8507,1.8521,1.8536,1.8522,1.8523,1.8523,1.8565,1.8562,1.8565,1.8541,1.8542,1.8542,1.8562,0,1.8213,1.8262,1.828,1.8319,1.8345,1.8358,1.838,1.8404,1.842,1.8442,1.846,1.8486,1.8487,1.8498,1.8512,1.8531,1.8545,1.853,1.8559,1.856,1.8551,1.8569,1.8567,1.8584,1.8565,1.8565,1.8565,0,1.8249,1.8275,1.8317,1.8347,1.8359,1.8379,1.8407,1.8429,1.8454,1.8465,1.8484,1.8495,1.8521,1.8517,1.8551,1.8541,1.8553,1.8564,1.8565,1.8569,1.8564,1.8572,1.8591,1.8593,1.857,1.857,1.8569,0,1.8255,1.8301,1.8331,1.8344,1.8381,1.8395,1.841,1.8436,1.8452,1.8476,1.8486,1.8513,1.8527,1.8547,1.8564,1.856,1.8595,1.8593,1.8603,1.8603,1.8611,1.861,1.8631,1.862,1.862,1.862,1.8619,0,1.828,1.8305,1.8334,1.8352,1.8379,1.8398,1.8424,1.844,1.8462,1.8482,1.8495,1.8514,1.8535,1.8556,1.8569,1.8594,1.8601,1.8609,1.8612,1.8608,1.8606,1.8617,1.8616,1.862,1.862,1.862,1.862,0,1.8292,1.8313,1.8346,1.8377,1.8386,1.8404,1.843,1.8447,1.8463,1.8488,1.8495,1.8519,1.8544,1.8562,1.8595,1.8603,1.8629,1.8633,1.8621,1.8623,1.8631,1.863,1.8659,1.8663,1.8649,1.8649,1.8649,0,1.8307,1.8326,1.8359,1.8373,1.8389,1.8413,1.8429,1.8448,1.8464,1.8493,1.8506,1.8532,1.8553,1.8591,1.8611,1.8635,1.8639,1.8647,1.8642,1.8636,1.8637,1.8636,1.8637,1.8648,1.8648,1.8648,1.8648,0,1.833,1.8338,1.8362,1.8389,1.8408,1.8429,1.8451,1.8462,1.8484,1.8501,1.8527,1.8543,1.8575,1.8599,1.8625,1.8639,1.8647,1.8649,1.8652,1.8648,1.864,1.8643,1.8622,1.8649,1.8648,1.8648,1.8648,1.8648,1.8343,1.836,1.8385,1.841,1.8428,1.8447,1.8464,1.8481,1.8503,1.8531,1.854,1.8565,1.8588,1.8622,1.8636,1.8655,1.8656,1.8661,1.8662,1.8663,1.8662,1.8637,1.866,1.866,1.866,1.866,1.866,0,1.8366,1.8382,1.8405,1.8434,1.8453,1.8459,1.8482,1.8497,1.852,1.854,1.8561,1.8588,1.8611,1.8631,1.8655,1.8666,1.867,1.8671,1.8671,1.8673,1.8661,1.8656,1.8668,1.8668,1.8668,1.8668,1.8668,1.8668,1.838,1.8407,1.8418,1.8454,1.847,1.8495,1.8508,1.8525,1.8541,1.8572,1.8591,1.8604,1.8623,1.8648,1.8668,1.8673,1.8681,1.8681,1.8687,1.8676,1.8675,1.8674,1.8668,1.8683,1.8683,1.8698,1.8698,1.8698]}]]